Location: Unspecified
(34.1750°S, 150.8048°E)
Time: 06:05:31
(UTC+10:00)

ISS - Visible Passes

Search period start: 29 September 2023 00:00
Search period end: 09 October 2023 01:00
Orbit: 413 x 421 km, 51.6° (Epoch: 28 September)

Date Brightness Start Highest point End Pass type
(mag) Time Alt. Az. Time Alt. Az. Time Alt. Az.
05 Oct -0.7 05:49:54 10° S 05:51:03 11° SSE 05:52:11 10° SE visible
07 Oct -1.3 05:48:03 10° SSW 05:50:53 23° SE 05:53:41 10° E visible
08 Oct -0.8 04:59:51 10° S 05:01:59 15° SSE 05:04:05 10° ESE visible
